Change the Weather History Date:

Tuesday, January 21, 2014

  Actual Average Record
Temperature  
Mean Temperature 9 °F 26 °F  
Max Temperature 16 °F 35 °F 67 °F (1957)
Min Temperature 1 °F 17 °F -22 °F (1970)
Degree Days  
Heating Degree Days 56 39  
Month to date heating degree days 906 819  
Since 1 July heating degree days 3423 3005  
Cooling Degree Days 0 0  
Month to date cooling degree days 0 0  
Year to date cooling degree days 0 0  
Moisture  
Dew Point 1 °F    
Average Humidity 69    
Maximum Humidity 80    
Minimum Humidity 57    
Precipitation  
Precipitation T in 0.04 in 0.76 in (1958)
Month to date precipitation 0.62 0.86  
Year to date precipitation 0.62 0.86  
Sea Level Pressure  
Sea Level Pressure 30.29 in    
Wind  
Wind Speed 10 mph (North)    
Max Wind Speed 31 mph    
Max Gust Speed 38 mph    
Visibility 8 miles    
Events Snow    
T = Trace of Precipitation, MM = Missing Value Source: NWS Daily Summary

Daily Weather History Graph

Daily Weather History Graph

Search for Another Location

Airport or City:

Trip Planner

Search our weather history database for the weather conditions in past years. The results will help you decide how hot, cold, wet, or windy it might be!

Date:

Astronomy

Jan. 21, 2014 Rise Set
Actual Time 7:23 AM CST 5:08 PM CST
Civil Twilight 6:53 AM CST 5:38 PM CST
Nautical Twilight 6:20 AM CST 6:11 PM CST
Astronomical Twilight 5:47 AM CST 6:44 PM CST
Moon 10:44 PM CST (1/21) 9:51 AM CST (1/21)
Length of Visible Light 10h 44m
Length of Day
9h 45m
Waning Gibbous, 74% of the Moon is Illuminated
Jan 21
Waning Gibbous
Jan 23
Last Quarter
Jan 30
New
Feb 6
First Quarter
Feb 14
Full

Hourly Weather History & Observations

Time (CST) Temp. Windchill Dew Point Humidity Pressure Visibility Wind Dir Wind Speed Gust Speed Precip Events Conditions
12:11 AM 16.0 °F -3.2 °F 10.9 °F 81% 30.14 in 2.0 mi North 26.5 mph 38.0 mph 0.00 in Snow Light Snow
12:25 AM 15.1 °F -3.3 °F 10.9 °F 84% 30.15 in 2.5 mi NNE 23.0 mph 35.7 mph 0.00 in Snow Light Snow
12:36 AM 15.1 °F -3.3 °F 10.0 °F 80% 30.15 in 4.0 mi NNE 23.0 mph 31.1 mph 0.00 in Snow Light Snow
12:53 AM 15.1 °F -2.0 °F 10.0 °F 80% 30.19 in 5.0 mi NNE 19.6 mph 27.6 mph 0.00 in Snow Light Snow
1:18 AM 15.1 °F -0.1 °F 10.9 °F 84% 30.17 in 2.5 mi North 15.0 mph - 0.00 in Snow Light Snow
1:27 AM 15.1 °F 1.1 °F 10.9 °F 84% 30.18 in 1.2 mi North 12.7 mph - 0.00 in Snow Light Snow
1:34 AM 15.1 °F -3.3 °F 10.9 °F 84% 30.18 in 1.2 mi North 23.0 mph 29.9 mph 0.00 in Snow Light Snow
1:42 AM 14.0 °F -4.3 °F 9.0 °F 80% 30.19 in 3.0 mi North 21.9 mph 32.2 mph 0.00 in Snow Light Snow
1:50 AM 14.0 °F -3.0 °F 8.6 °F 79% 30.20 in 5.0 mi North 18.4 mph 27.6 mph 0.00 in Snow Light Snow
1:53 AM 14.0 °F -4.7 °F 9.0 °F 80% 30.23 in 5.0 mi North 23.0 mph 31.1 mph 0.00 in Snow Light Snow
2:29 AM 12.0 °F -6.5 °F 5.0 °F 73% 30.23 in 10.0 mi North 20.7 mph 28.8 mph 0.00 in   Scattered Clouds
2:53 AM 10.9 °F -9.2 °F 3.9 °F 73% 30.28 in 10.0 mi North 24.2 mph 29.9 mph 0.00 in   Partly Cloudy
3:40 AM 10.9 °F -5.9 °F 3.9 °F 73% 30.28 in 10.0 mi North 16.1 mph 28.8 mph N/A   Mostly Cloudy
3:53 AM 10.0 °F -7.1 °F 3.0 °F 73% 30.32 in 10.0 mi North 16.1 mph - N/A   Mostly Cloudy
4:09 AM 10.0 °F -8.6 °F 1.0 °F 67% 30.30 in 10.0 mi North 19.6 mph 26.5 mph N/A   Scattered Clouds
4:24 AM 9.0 °F -10.5 °F 1.9 °F 73% 30.31 in 7.0 mi North 20.7 mph 28.8 mph N/A   Mostly Cloudy
4:53 AM 7.0 °F -12.6 °F -2.0 °F 67% 30.35 in 10.0 mi North 19.6 mph 27.6 mph N/A   Scattered Clouds
5:53 AM 3.9 °F -13.7 °F -5.1 °F 66% 30.39 in 10.0 mi North 13.8 mph 23.0 mph N/A   Clear
6:53 AM 1.9 °F -16.9 °F -7.1 °F 66% 30.42 in 10.0 mi North 15.0 mph 26.5 mph N/A   Clear
7:53 AM 1.9 °F -13.8 °F -8.0 °F 63% 30.42 in 10.0 mi NNW 10.4 mph - N/A   Clear
8:53 AM 1.9 °F -16.2 °F -7.1 °F 66% 30.43 in 10.0 mi NNW 13.8 mph - N/A   Clear
9:53 AM 3.9 °F -11.3 °F -6.0 °F 64% 30.46 in 10.0 mi NNW 10.4 mph - N/A   Clear
10:53 AM 3.9 °F -10.4 °F -6.0 °F 64% 30.45 in 10.0 mi North 9.2 mph - N/A   Clear
11:53 AM 5.0 °F -8.1 °F -5.1 °F 63% 30.43 in 10.0 mi WNW 8.1 mph - N/A   Clear
12:53 PM 7.0 °F -7.5 °F -4.0 °F 61% 30.39 in 10.0 mi NW 10.4 mph - N/A   Clear
1:53 PM 7.0 °F -5.7 °F -2.9 °F 64% 30.36 in 10.0 mi NW 8.1 mph - N/A   Clear
2:53 PM 7.0 °F -3.3 °F -5.1 °F 58% 30.34 in 10.0 mi NW 5.8 mph - N/A   Partly Cloudy
3:53 PM 8.1 °F -0.5 °F -4.0 °F 58% 30.34 in 10.0 mi North 4.6 mph - N/A   Mostly Cloudy
4:53 PM 8.1 °F 1.4 °F -4.0 °F 58% 30.33 in 10.0 mi North 3.5 mph - N/A   Mostly Cloudy
5:53 PM 8.1 °F - -2.9 °F 61% 30.32 in 10.0 mi Calm Calm - N/A   Mostly Cloudy
6:53 PM 7.0 °F -3.3 °F -2.0 °F 67% 30.29 in 10.0 mi ESE 5.8 mph - N/A   Overcast
7:53 PM 7.0 °F 0.1 °F -2.0 °F 67% 30.26 in 10.0 mi SE 3.5 mph - N/A   Overcast
8:53 PM 8.1 °F - -0.0 °F 70% 30.27 in 10.0 mi Calm Calm - N/A   Overcast
9:53 PM 9.0 °F 0.6 °F -0.0 °F 67% 30.27 in 10.0 mi South 4.6 mph - N/A   Overcast
10:53 PM 10.0 °F 0.4 °F 1.9 °F 70% 30.24 in 10.0 mi SSE 5.8 mph - N/A   Overcast
11:53 PM 10.0 °F -0.9 °F 1.9 °F 70% 30.22 in 10.0 mi South 6.9 mph - N/A   Overcast